• Join FlightAware (Why Join?)
  • Login
  • US Flag 
12:36PM EDT


 

Airport Tracker/Info


-or-


 

Live Flight TrackerFlight Track Log ✈ N711LV ✈ 02-May-2013 ✈ KMKC - KSDF

Flight Track Log - Related Links

Times and Time Zones

All times are in EDT time to prevent confusion due to time zone crossing. See the N711LV flight status page for this flight to view local times or setup timezone preferences in your user account.

Time Position Orientation Groundspeed Altitude Reporting Facility
EDT Latitude Longitude Course Direction KTS MPH feet Rate Location/Type
05:48PM 39.1667 -94.5667 21° North 176 203 3,200  Level Kansas City TRACON
05:49PM 39.1922 -94.5369 42° Northeast 190 219 5,300 2,160 Climbing Kansas City Center
05:50PM 39.1811 -94.4514 99° East 255 293 7,300 1,860 Climbing Kansas City Center
05:51PM 39.1742 -94.3394 95° East 282 325 9,200 1,680 Climbing Kansas City Center
05:52PM 39.1686 -94.2403 94° East 292 336 10,800 1,740 Climbing Kansas City Center
05:53PM 39.1194 -94.1447 124° Southeast 285 328 12,800 1,680 Climbing Kansas City Center
05:54PM 39.0931 -94.0531 110° East 291 335 14,300 1,380 Climbing Kansas City Center
05:55PM 39.0856 -93.9469 95° East 311 358 15,700 1,500 Climbing Kansas City Center
05:56PM 39.0747 -93.8131 96° East 336 387 17,400 1,260 Climbing Kansas City Center
05:57PM 39.0661 -93.6922 95° East 353 406 18,400 1,260 Climbing Kansas City Center
05:58PM 39.0575 -93.5486 94° East 361 415 20,100 1,440 Climbing Kansas City Center
05:59PM 39.0489 -93.4242 95° East 365 420 21,500 1,380 Climbing Kansas City Center
06:00PM 39.0411 -93.2897 94° East 369 425 23,000 1,200 Climbing Kansas City Center
06:01PM 39.0306 -93.1561 96° East 375 432 24,100 1,380 Climbing Kansas City Center
06:02PM 39.0150 -92.9903 97° East 384 442 25,900 1,620 Climbing Kansas City Center
06:03PM 38.9936 -92.8522 101° East 387 445 27,500 1,500 Climbing Kansas City Center
06:04PM 38.9758 -92.7161 99° East 385 443 29,100 1,500 Climbing Kansas City Center
06:05PM 38.9561 -92.5800 101° East 385 443 30,600 1,440 Climbing Kansas City Center
06:06PM 38.9375 -92.4425 100° East 387 445 32,100 1,380 Climbing Kansas City Center
06:07PM 38.9178 -92.3053 100° East 388 447 33,500 1,380 Climbing Kansas City Center
06:08PM 38.8978 -92.1697 101° East 385 443 35,000 1,320 Climbing Kansas City Center
06:09PM 38.8753 -92.0097 100° East 380 437 36,300 960 Climbing Kansas City Center
06:10PM 38.8539 -91.8728 101° East 385 443 37,000 300 Climbing Kansas City Center
06:11PM 38.8322 -91.7278 101° East 403 464 37,000  Level Kansas City Center
06:13PM 38.8072 -91.5639 101° East 428 493 37,000  Level Kansas City Center
06:14PM 38.7828 -91.4050 101° East 447 514 37,000  Level Kansas City Center
06:15PM 38.7583 -91.2433 101° East 459 528 37,000  Level Kansas City Center
06:16PM 38.7333 -91.0811 101° East 464 534 37,000  Level Kansas City Center
06:17PM 38.7075 -90.9183 101° East 468 539 37,000  Level Kansas City Center
06:18PM 38.6822 -90.7575 101° East 466 536 37,000  Level Kansas City Center
06:19PM 38.6511 -90.5636 102° East 467 537 37,000  Level Kansas City Center
06:20PM 38.6264 -90.4006 101° East 467 537 37,000  Level Kansas City Center
06:21PM 38.6003 -90.2439 102° East 485 558 37,000  Level Kansas City Center
06:22PM 38.5692 -90.0514 102° East 475 547 37,000  Level Kansas City Center
06:23PM 38.5422 -89.8894 102° East 477 549 37,000  Level Kansas City Center
06:24PM 38.5144 -89.7269 102° East 473 544 37,000  Level Kansas City Center
06:25PM 38.4850 -89.5436 102° East 472 543 37,000  Level Kansas City Center
06:26PM 38.4569 -89.3814 102° East 470 541 37,000 -540 Level Kansas City Center
06:27PM 38.4292 -89.2194 102° East 470 541 36,000 -1,020 Descending Kansas City Center
06:28PM 38.4122 -89.0444 97° East 460 529 35,000 -600 Descending Kansas City Center
06:29PM 38.4092 -88.8892 91° East 441 507 34,800 -780 Descending Kansas City Center
06:30PM 38.3997 -88.7231 94° East 438 504 33,400 -1,320 Descending Kansas City Center
06:31PM 38.3919 -88.5686 94° East 446 513 32,100 -1,320 Descending Kansas City Center
06:32PM 38.3856 -88.4092 93° East 450 518 30,700 -1,320 Descending Kansas City Center
06:33PM 38.3778 -88.2503 94° East 449 517 29,400 -1,320 Descending Kansas City Center
06:34PM 38.3700 -88.0931 94° East 446 513 28,000 -1,500 Descending Kansas City Center
06:35PM 38.3633 -87.9417 93° East 432 497 26,300 -1,680 Descending Kansas City Center
06:36PM 38.3550 -87.7636 93° East 421 484 24,300 -1,800 Descending Indianapolis Center
06:38PM 38.3456 -87.5889 94° East 412 474 22,400 -1,740 Descending Indianapolis Center
06:39PM 38.3375 -87.4475 94° East 401 461 20,800 -1,560 Descending Indianapolis Center
06:40PM 38.3300 -87.3081 94° East 396 456 19,200 -1,500 Descending Indianapolis Center
06:41PM 38.3153 -87.1753 98° East 383 441 17,700 -1,560 Descending Indianapolis Center
06:42PM 38.2964 -87.0283 99° East 373 429 16,000 -1,500 Descending Indianapolis Center
06:43PM 38.2814 -86.9125 99° East 353 406 14,600 -1,260 Descending Indianapolis Center
06:44PM 38.2669 -86.7967 99° East 336 387 13,400 -1,260 Descending Indianapolis Center
06:45PM 38.2517 -86.6847 100° East 324 373 12,100 -1,260 Descending Indianapolis Center
06:46PM 38.2542 -86.5731 88° East 327 376 10,800 -1,320 Descending Indianapolis Center
06:47PM 38.2806 -86.4675 72° East 316 364 9,400 -1,560 Descending Indianapolis Center
06:48PM 38.3106 -86.3456 73° East 303 349 7,600 -1,620 Descending Indianapolis Center
06:49PM 38.3261 -86.2536 78° East 269 310 6,100 -1,500 Descending Indianapolis Center
06:50PM 38.3361 -86.1636 82° East 257 296 4,600 -1,020 Descending Indianapolis Center
06:51PM 38.3314 -86.0733 94° East 254 292 4,100 -300 Descending Indianapolis Center
06:52PM 38.3158 -85.9842 103° East 255 293 4,100 -180 Level Indianapolis Center
06:53PM 38.3025 -85.8953 101° East 256 295 3,800 -660 Descending Indianapolis Center
06:54PM 38.2875 -85.8178 104° East 241 277 2,800 -720 Descending Indianapolis Center
06:55PM 38.2525 -85.7500 123° Southeast 225 259 2,400 -420 Descending Indianapolis Center
06:57PM 38.1741 -85.7365 137° Southeast  Level Estimated
07:04PM 38.1741 -85.7365 293° West  Level Estimated
07:05PM 38.1741 -85.7365 293° West  Level Estimated